Tracking 19846 objects as of 20-Sep-2019
HD Live streaming from Space Station
objects crossing your sky now

SLOSHSAT

Track SLOSHSAT now!
SLOSHSAT is classified as:


NORAD ID: 28544
Int'l Code: 2005-005C
Perigee: 269.9 km
Apogee: 32,712.4 km
Inclination: 6.9 °
Period: 573.4 minutes
Semi major axis: 22862 km
RCS: 0.5011 m2 (medium)
Launch date: February 12, 2005
Source: European Space Agency (ESA)
Launch site: FRENCH GUIANA (FRGUI)
aabbcc
Your satellite tracking list
Your tracking list is empty




NASA's NSSDC Master Catalog

Two Line Element Set (TLE):
1 28544U 05005C   19261.19329778 +.00002390 +00000-0 +79117-3 0  9990
2 28544 006.9209 100.6312 7095244 101.8497 339.1566 02.51146486127410
Source of the keplerian elements: AFSPC